Year,Month,Day,Hour,Minute,Value (Times are PST for temperature in C)
2019,03,19,00,00,10.40
2019,03,19,00,01,10.40
2019,03,19,00,02,10.40
2019,03,19,00,03,10.40
2019,03,19,00,04,10.40
2019,03,19,00,05,10.40
2019,03,19,00,06,10.50
2019,03,19,00,07,10.60
2019,03,19,00,08,10.60
2019,03,19,00,09,10.60
2019,03,19,00,10,10.60
2019,03,19,00,11,10.60
2019,03,19,00,12,10.50
2019,03,19,00,13,10.40
2019,03,19,00,14,10.40
2019,03,19,00,15,10.40
2019,03,19,00,16,10.30
2019,03,19,00,17,10.30
2019,03,19,00,18,10.30
2019,03,19,00,19,10.20
2019,03,19,00,20,10.20
2019,03,19,00,21,10.20
2019,03,19,00,22,10.20
2019,03,19,00,23,10.20
2019,03,19,00,24,10.20
2019,03,19,00,25,10.20
2019,03,19,00,26,10.20
2019,03,19,00,27,10.20
2019,03,19,00,28,10.20
2019,03,19,00,29,10.20
2019,03,19,00,30,10.20
2019,03,19,00,31,10.20
2019,03,19,00,32,10.10
2019,03,19,00,33,10.10
2019,03,19,00,34,10.10
2019,03,19,00,35,10.10
2019,03,19,00,36,10.10
2019,03,19,00,37,10.10
2019,03,19,00,38,10.10
2019,03,19,00,39,10.10
2019,03,19,00,40,10.10
2019,03,19,00,41,10.10
2019,03,19,00,42,10.10
2019,03,19,00,43,10.10
2019,03,19,00,44,10.10
2019,03,19,00,45,10.10
2019,03,19,00,46,10.10
2019,03,19,00,47,10.10
2019,03,19,00,48,10.10
2019,03,19,00,49,10.10
2019,03,19,00,50,10.10
2019,03,19,00,51,10.10
2019,03,19,00,52,10.10
2019,03,19,00,53,10.10
2019,03,19,00,54,10.10
2019,03,19,00,55,10.10
2019,03,19,00,56,10.20
2019,03,19,00,57,10.20
2019,03,19,00,58,10.20
2019,03,19,00,59,10.20
2019,03,19,01,00,10.20
2019,03,19,01,01,10.30
2019,03,19,01,02,10.30
2019,03,19,01,03,10.40
2019,03,19,01,04,10.40
2019,03,19,01,05,10.40
2019,03,19,01,06,10.40
2019,03,19,01,07,10.40
2019,03,19,01,08,10.30
2019,03,19,01,09,10.30
2019,03,19,01,10,10.30
2019,03,19,01,11,10.30
2019,03,19,01,12,10.30
2019,03,19,01,13,10.20
2019,03,19,01,14,10.20
2019,03,19,01,15,10.20
2019,03,19,01,16,10.20
2019,03,19,01,17,10.20
2019,03,19,01,18,10.10
2019,03,19,01,19,10.10
2019,03,19,01,20,10.10
2019,03,19,01,21,10.10
2019,03,19,01,22,10.10
2019,03,19,01,23,10.10
2019,03,19,01,24,10.10
2019,03,19,01,25,10.10
2019,03,19,01,26,10.10
2019,03,19,01,27,10.10
2019,03,19,01,28,10.10
2019,03,19,01,29,10.10
2019,03,19,01,30,10.10
2019,03,19,01,31,10.10
2019,03,19,01,32,10.10
2019,03,19,01,33,10.10
2019,03,19,01,34,10.10
2019,03,19,01,35,10.10
2019,03,19,01,36,10.10
2019,03,19,01,37,10.10
2019,03,19,01,38,10.10
2019,03,19,01,39,10.10
2019,03,19,01,40,10.10
2019,03,19,01,41,10.10
2019,03,19,01,42,10.10
2019,03,19,01,43,10.20
2019,03,19,01,44,10.10
2019,03,19,01,45,10.10
2019,03,19,01,46,10.10
2019,03,19,01,47,10.10
2019,03,19,01,48,10.20
2019,03,19,01,49,10.20
2019,03,19,01,50,10.20
2019,03,19,01,51,10.10
2019,03,19,01,52,10.10
2019,03,19,01,53,10.10
2019,03,19,01,54,10.10
2019,03,19,01,55,10.10
2019,03,19,01,56,10.00
2019,03,19,01,57,9.90
2019,03,19,01,58,9.90
2019,03,19,01,59,9.90
2019,03,19,02,00,9.70
2019,03,19,02,01,9.60
2019,03,19,02,02,9.50
2019,03,19,02,03,9.50
2019,03,19,02,04,9.40
2019,03,19,02,05,9.40
2019,03,19,02,06,9.30
2019,03,19,02,07,9.30
2019,03,19,02,08,9.30
2019,03,19,02,09,9.30
2019,03,19,02,10,9.30
2019,03,19,02,11,9.30
2019,03,19,02,12,9.30
2019,03,19,02,13,9.30
2019,03,19,02,14,9.30
2019,03,19,02,15,9.20
2019,03,19,02,16,9.20
2019,03,19,02,17,9.20
2019,03,19,02,18,9.20
2019,03,19,02,19,9.30
2019,03,19,02,20,9.30
2019,03,19,02,21,9.30
2019,03,19,02,22,9.20
2019,03,19,02,23,9.20
2019,03,19,02,24,9.20
2019,03,19,02,25,9.20
2019,03,19,02,26,9.10
2019,03,19,02,27,9.00
2019,03,19,02,28,9.00
2019,03,19,02,29,8.90
2019,03,19,02,30,8.90
2019,03,19,02,31,8.90
2019,03,19,02,32,8.90
2019,03,19,02,33,8.90
2019,03,19,02,34,8.90
2019,03,19,02,35,9.00
2019,03,19,02,36,9.00
2019,03,19,02,37,9.10
2019,03,19,02,38,9.10
2019,03,19,02,39,9.10
2019,03,19,02,40,9.20
2019,03,19,02,41,9.20
2019,03,19,02,42,9.20
2019,03,19,02,43,9.30
2019,03,19,02,44,9.30
2019,03,19,02,45,9.40
2019,03,19,02,46,9.40
2019,03,19,02,47,9.40
2019,03,19,02,48,9.50
2019,03,19,02,49,9.50
2019,03,19,02,50,9.50
2019,03,19,02,51,9.50
2019,03,19,02,52,9.50
2019,03,19,02,53,9.50
2019,03,19,02,54,9.50
2019,03,19,02,55,9.50
2019,03,19,02,56,9.50
2019,03,19,02,57,9.50
2019,03,19,02,58,9.50
2019,03,19,02,59,9.60
2019,03,19,03,00,9.60
2019,03,19,03,01,9.60
2019,03,19,03,02,9.60
2019,03,19,03,03,9.60
2019,03,19,03,04,9.50
2019,03,19,03,05,9.50
2019,03,19,03,06,9.40
2019,03,19,03,07,9.40
2019,03,19,03,08,9.30
2019,03,19,03,09,9.20
2019,03,19,03,10,9.20
2019,03,19,03,11,9.10
2019,03,19,03,12,9.10
2019,03,19,03,13,9.00
2019,03,19,03,14,9.00
2019,03,19,03,15,9.00
2019,03,19,03,16,9.00
2019,03,19,03,17,9.00
2019,03,19,03,18,9.00
2019,03,19,03,19,9.00
2019,03,19,03,20,8.90
2019,03,19,03,21,8.90
2019,03,19,03,22,8.90
2019,03,19,03,23,8.90
2019,03,19,03,24,8.90
2019,03,19,03,25,8.90
2019,03,19,03,26,8.90
2019,03,19,03,27,8.90
2019,03,19,03,28,8.90
2019,03,19,03,29,8.90
2019,03,19,03,30,8.90
2019,03,19,03,31,8.90
2019,03,19,03,32,8.90
2019,03,19,03,33,8.90
2019,03,19,03,34,8.90
2019,03,19,03,35,8.90
2019,03,19,03,36,8.90
2019,03,19,03,37,8.80
2019,03,19,03,38,8.80
2019,03,19,03,39,8.80
2019,03,19,03,40,8.80
2019,03,19,03,41,8.70
2019,03,19,03,42,8.70
2019,03,19,03,43,8.70
2019,03,19,03,44,8.70
2019,03,19,03,45,8.70
2019,03,19,03,46,8.70
2019,03,19,03,47,8.70
2019,03,19,03,48,8.70
2019,03,19,03,49,8.70
2019,03,19,03,50,8.70
2019,03,19,03,51,8.70
2019,03,19,03,52,8.70
2019,03,19,03,53,8.70
2019,03,19,03,54,8.70
2019,03,19,03,55,8.80
2019,03,19,03,56,8.90
2019,03,19,03,57,8.90
2019,03,19,03,58,8.90
2019,03,19,03,59,8.90
2019,03,19,04,00,8.80
2019,03,19,04,01,8.80
2019,03,19,04,02,8.70
2019,03,19,04,03,8.70
2019,03,19,04,04,8.70
2019,03,19,04,05,8.60
2019,03,19,04,06,8.50
2019,03,19,04,07,8.40
2019,03,19,04,08,8.30
2019,03,19,04,09,8.30
2019,03,19,04,10,8.20
2019,03,19,04,11,8.20
2019,03,19,04,12,8.20
2019,03,19,04,13,8.20
2019,03,19,04,14,8.20
2019,03,19,04,15,8.20
2019,03,19,04,16,8.20
2019,03,19,04,17,8.10
2019,03,19,04,18,8.10
2019,03,19,04,19,8.00
2019,03,19,04,20,8.00
2019,03,19,04,21,8.00
2019,03,19,04,22,8.00
2019,03,19,04,23,8.00
2019,03,19,04,24,8.00
2019,03,19,04,25,7.90
2019,03,19,04,26,7.90
2019,03,19,04,27,7.90
2019,03,19,04,28,7.80
2019,03,19,04,29,7.80
2019,03,19,04,30,7.80
2019,03,19,04,31,7.80
2019,03,19,04,32,7.80
2019,03,19,04,33,7.80
2019,03,19,04,34,7.80
2019,03,19,04,35,7.80
2019,03,19,04,36,7.80
2019,03,19,04,37,7.80
2019,03,19,04,38,7.80
2019,03,19,04,39,7.80
2019,03,19,04,40,7.80
2019,03,19,04,41,7.70
2019,03,19,04,42,7.80
2019,03,19,04,43,7.80
2019,03,19,04,44,7.80
2019,03,19,04,45,8.00
2019,03,19,04,46,8.10
2019,03,19,04,47,8.20
2019,03,19,04,48,8.30
2019,03,19,04,49,8.30
2019,03,19,04,50,8.40
2019,03,19,04,51,8.50
2019,03,19,04,52,8.50
2019,03,19,04,53,8.70
2019,03,19,04,54,8.70
2019,03,19,04,55,8.80
2019,03,19,04,56,8.90
2019,03,19,04,57,8.90
2019,03,19,04,58,9.00
2019,03,19,04,59,9.00
2019,03,19,05,00,9.10
2019,03,19,05,01,9.20
2019,03,19,05,02,9.20
2019,03,19,05,03,9.20
2019,03,19,05,04,9.20
2019,03,19,05,05,9.20
2019,03,19,05,06,9.20
2019,03,19,05,07,9.30
2019,03,19,05,08,9.30
2019,03,19,05,09,9.20
2019,03,19,05,10,9.20
2019,03,19,05,11,9.10
2019,03,19,05,12,9.00
2019,03,19,05,13,8.90
2019,03,19,05,14,8.80
2019,03,19,05,15,8.70
2019,03,19,05,16,8.70
2019,03,19,05,17,8.60
2019,03,19,05,18,8.60
2019,03,19,05,19,8.50
2019,03,19,05,20,8.50
2019,03,19,05,21,8.40
2019,03,19,05,22,8.40
2019,03,19,05,23,8.40
2019,03,19,05,24,8.40
2019,03,19,05,25,8.40
2019,03,19,05,26,8.30
2019,03,19,05,27,8.40
2019,03,19,05,28,8.40
2019,03,19,05,29,8.40
2019,03,19,05,30,8.30
2019,03,19,05,31,8.30
2019,03,19,05,32,8.30
2019,03,19,05,33,8.20
2019,03,19,05,34,8.20
2019,03,19,05,35,8.10
2019,03,19,05,36,8.10
2019,03,19,05,37,8.00
2019,03,19,05,38,7.90
2019,03,19,05,39,7.90
2019,03,19,05,40,7.80
2019,03,19,05,41,7.80
2019,03,19,05,42,7.70
2019,03,19,05,43,7.60
2019,03,19,05,44,7.50
2019,03,19,05,45,7.50
2019,03,19,05,46,7.40
2019,03,19,05,47,7.30
2019,03,19,05,48,7.30
2019,03,19,05,49,7.30
2019,03,19,05,50,7.30
2019,03,19,05,51,7.30
2019,03,19,05,52,7.20
2019,03,19,05,53,7.20
2019,03,19,05,54,7.20
2019,03,19,05,55,7.10
2019,03,19,05,56,7.10
2019,03,19,05,57,7.10
2019,03,19,05,58,7.10
2019,03,19,05,59,7.10
2019,03,19,06,00,7.10
2019,03,19,06,01,7.10
2019,03,19,06,02,7.00
2019,03,19,06,03,7.00
2019,03,19,06,04,7.00
2019,03,19,06,05,7.00
2019,03,19,06,06,7.00
2019,03,19,06,07,7.00
2019,03,19,06,08,7.00
2019,03,19,06,09,7.00
2019,03,19,06,10,7.00
2019,03,19,06,11,7.00
2019,03,19,06,12,7.00
2019,03,19,06,13,7.00
2019,03,19,06,14,7.00
2019,03,19,06,15,7.00
2019,03,19,06,16,7.00
2019,03,19,06,17,7.10
2019,03,19,06,18,7.10
2019,03,19,06,19,7.10
2019,03,19,06,20,7.10
2019,03,19,06,21,7.10
2019,03,19,06,22,7.10
2019,03,19,06,23,7.10
2019,03,19,06,24,7.20
2019,03,19,06,25,7.20
2019,03,19,06,26,7.30
2019,03,19,06,27,7.30
2019,03,19,06,28,7.30
2019,03,19,06,29,7.30
2019,03,19,06,30,7.30
2019,03,19,06,31,7.20
2019,03,19,06,32,7.20
2019,03,19,06,33,7.10
2019,03,19,06,34,7.00
2019,03,19,06,35,7.00
2019,03,19,06,36,6.90
2019,03,19,06,37,6.90
2019,03,19,06,38,6.90
2019,03,19,06,39,6.80
2019,03,19,06,40,6.80
2019,03,19,06,41,6.80
2019,03,19,06,42,6.90
2019,03,19,06,43,6.90
2019,03,19,06,44,6.90
2019,03,19,06,45,6.90
2019,03,19,06,46,6.90
2019,03,19,06,47,6.90
2019,03,19,06,48,6.80
2019,03,19,06,49,6.80
2019,03,19,06,50,6.80
2019,03,19,06,51,6.80
2019,03,19,06,52,6.80
2019,03,19,06,53,6.80
2019,03,19,06,54,6.80
2019,03,19,06,55,6.80
2019,03,19,06,56,6.80
2019,03,19,06,57,6.80
2019,03,19,06,58,6.70
2019,03,19,06,59,6.70
2019,03,19,07,00,6.60
2019,03,19,07,01,6.60
2019,03,19,07,02,6.60
2019,03,19,07,03,6.60
2019,03,19,07,04,6.60
2019,03,19,07,05,6.60
2019,03,19,07,06,6.60
2019,03,19,07,07,6.60
2019,03,19,07,08,6.60
2019,03,19,07,09,6.60
2019,03,19,07,10,6.60
2019,03,19,07,11,6.60
2019,03,19,07,12,6.60
2019,03,19,07,13,6.60
2019,03,19,07,14,6.60
2019,03,19,07,15,6.60
2019,03,19,07,16,6.60
2019,03,19,07,17,6.60
2019,03,19,07,18,6.60
2019,03,19,07,19,6.60
2019,03,19,07,20,6.60
2019,03,19,07,21,6.60
2019,03,19,07,22,6.60
2019,03,19,07,23,6.60
2019,03,19,07,24,6.60
2019,03,19,07,25,6.70
2019,03,19,07,26,6.70
2019,03,19,07,27,6.80
2019,03,19,07,28,6.80
2019,03,19,07,29,6.80
2019,03,19,07,30,6.90
2019,03,19,07,31,6.90
2019,03,19,07,32,7.00
2019,03,19,07,33,7.00
2019,03,19,07,34,7.00
2019,03,19,07,35,7.10
2019,03,19,07,36,7.10
2019,03,19,07,37,7.20
2019,03,19,07,38,7.20
2019,03,19,07,39,7.30
2019,03,19,07,40,7.30
2019,03,19,07,41,7.30
2019,03,19,07,42,7.40
2019,03,19,07,43,7.50
2019,03,19,07,44,7.50
2019,03,19,07,45,7.60
2019,03,19,07,46,7.60
2019,03,19,07,47,7.70
2019,03,19,07,48,7.70
2019,03,19,07,49,7.80
2019,03,19,07,50,7.80
2019,03,19,07,51,7.80
2019,03,19,07,52,7.80
2019,03,19,07,53,7.80
2019,03,19,07,54,7.90
2019,03,19,07,55,7.90
2019,03,19,07,56,8.00
2019,03,19,07,57,8.00
2019,03,19,07,58,8.10
2019,03,19,07,59,8.10
2019,03,19,08,00,8.10
2019,03,19,08,01,8.10
2019,03,19,08,02,8.10
2019,03,19,08,03,8.10
2019,03,19,08,04,8.10
2019,03,19,08,05,8.10
2019,03,19,08,06,8.20
2019,03,19,08,07,8.20
2019,03,19,08,08,8.20
2019,03,19,08,09,8.20
2019,03,19,08,10,8.20
2019,03,19,08,11,8.20
2019,03,19,08,12,8.30
2019,03,19,08,13,8.30
2019,03,19,08,14,8.40
2019,03,19,08,15,8.40
2019,03,19,08,16,8.50
2019,03,19,08,17,8.60
2019,03,19,08,18,8.70
2019,03,19,08,19,8.70
2019,03,19,08,20,8.80
2019,03,19,08,21,8.80
2019,03,19,08,22,8.90
2019,03,19,08,23,9.00
2019,03,19,08,24,9.00
2019,03,19,08,25,9.10
2019,03,19,08,26,9.10
2019,03,19,08,27,9.10
2019,03,19,08,28,9.10
2019,03,19,08,29,9.20
2019,03,19,08,30,9.20
2019,03,19,08,31,9.20
2019,03,19,08,32,9.20
2019,03,19,08,33,9.20
2019,03,19,08,34,9.20
2019,03,19,08,35,9.20
2019,03,19,08,36,9.20
2019,03,19,08,37,9.20
2019,03,19,08,38,9.20
2019,03,19,08,39,9.20
2019,03,19,08,40,9.20
2019,03,19,08,41,9.20
2019,03,19,08,42,9.20
2019,03,19,08,43,9.20
2019,03,19,08,44,9.20
2019,03,19,08,45,9.20
2019,03,19,08,46,9.20
2019,03,19,08,47,9.20
2019,03,19,08,48,9.20
2019,03,19,08,49,9.20
2019,03,19,08,50,9.20
2019,03,19,08,51,9.20
2019,03,19,08,52,9.20
2019,03,19,08,53,9.30
2019,03,19,08,54,9.30
2019,03,19,08,55,9.30
2019,03,19,08,56,9.30
2019,03,19,08,57,9.30
2019,03,19,08,58,9.30
2019,03,19,08,59,9.30
2019,03,19,09,00,9.20
2019,03,19,09,01,9.20
2019,03,19,09,02,9.20
2019,03,19,09,03,9.20
2019,03,19,09,04,9.20
2019,03,19,09,05,9.20
2019,03,19,09,06,9.10
2019,03,19,09,07,9.10
2019,03,19,09,08,9.10
2019,03,19,09,09,9.00
2019,03,19,09,10,9.00
2019,03,19,09,11,8.90
2019,03,19,09,12,8.90
2019,03,19,09,13,8.80
2019,03,19,09,14,8.70
2019,03,19,09,15,8.70
2019,03,19,09,16,8.70
2019,03,19,09,17,8.70
2019,03,19,09,18,8.70
2019,03,19,09,19,8.70
2019,03,19,09,20,8.70
2019,03,19,09,21,8.80
2019,03,19,09,22,8.80
2019,03,19,09,23,8.90
2019,03,19,09,24,9.00
2019,03,19,09,25,9.10
2019,03,19,09,26,9.20
2019,03,19,09,27,9.20
2019,03,19,09,28,9.10
2019,03,19,09,29,9.10
2019,03,19,09,30,9.10
2019,03,19,09,31,9.10
2019,03,19,09,32,9.10
2019,03,19,09,33,9.20
2019,03,19,09,34,9.30
2019,03,19,09,35,9.40
2019,03,19,09,36,9.50
2019,03,19,09,37,9.60
2019,03,19,09,38,9.70
2019,03,19,09,39,9.80
2019,03,19,09,40,9.80
2019,03,19,09,41,9.90
2019,03,19,09,42,10.00
2019,03,19,09,43,10.10
2019,03,19,09,44,10.10
2019,03,19,09,45,10.20
2019,03,19,09,46,10.20
2019,03,19,09,47,10.20
2019,03,19,09,48,10.20
2019,03,19,09,49,10.30
2019,03,19,09,50,10.30
2019,03,19,09,51,10.30
2019,03,19,09,52,10.40
2019,03,19,09,53,10.40
2019,03,19,09,54,10.50
2019,03,19,09,55,10.60
2019,03,19,09,56,10.60
2019,03,19,09,57,10.70
2019,03,19,09,58,10.70
2019,03,19,09,59,10.70
2019,03,19,10,00,10.80
2019,03,19,10,01,10.90
2019,03,19,10,02,10.90
2019,03,19,10,03,10.90
2019,03,19,10,04,10.90
2019,03,19,10,05,10.90
2019,03,19,10,06,10.90
2019,03,19,10,07,10.90
2019,03,19,10,08,10.90
2019,03,19,10,09,11.00
2019,03,19,10,10,10.90
2019,03,19,10,11,10.90
2019,03,19,10,12,10.90
2019,03,19,10,13,10.80
2019,03,19,10,14,10.80
2019,03,19,10,15,10.70
2019,03,19,10,16,10.60
2019,03,19,10,17,10.60
2019,03,19,10,18,10.60
2019,03,19,10,19,10.60
2019,03,19,10,20,10.60
2019,03,19,10,21,10.60
2019,03,19,10,22,10.70
2019,03,19,10,23,10.70
2019,03,19,10,24,10.70
2019,03,19,10,25,10.80
2019,03,19,10,26,10.80
2019,03,19,10,27,10.80
2019,03,19,10,28,10.90
2019,03,19,10,29,10.90
2019,03,19,10,30,11.00
2019,03,19,10,31,11.10
2019,03,19,10,32,11.10
2019,03,19,10,33,11.20
2019,03,19,10,34,11.30
2019,03,19,10,35,11.30
2019,03,19,10,36,11.40
2019,03,19,10,37,11.40
2019,03,19,10,38,11.40
2019,03,19,10,39,11.40
2019,03,19,10,40,11.40
2019,03,19,10,41,11.40
2019,03,19,10,42,11.40
2019,03,19,10,43,11.40
2019,03,19,10,44,11.40
2019,03,19,10,45,11.40
2019,03,19,10,46,11.50
2019,03,19,10,47,11.60
2019,03,19,10,48,11.60
2019,03,19,10,49,11.60
2019,03,19,10,50,11.60
2019,03,19,10,51,11.60
2019,03,19,10,52,11.60
2019,03,19,10,53,11.60
2019,03,19,10,54,11.70
2019,03,19,10,55,11.70
2019,03,19,10,56,11.70
2019,03,19,10,57,11.70
2019,03,19,10,58,11.70
2019,03,19,10,59,11.70
2019,03,19,11,00,11.70
2019,03,19,11,01,11.60
2019,03,19,11,02,11.60
2019,03,19,11,03,11.60
2019,03,19,11,04,11.60
2019,03,19,11,05,11.60
2019,03,19,11,06,11.60
2019,03,19,11,07,11.60
2019,03,19,11,08,11.70
2019,03,19,11,09,11.70
2019,03,19,11,10,11.70
2019,03,19,11,11,11.80
2019,03,19,11,12,11.80
2019,03,19,11,13,11.80
2019,03,19,11,14,11.80
2019,03,19,11,15,11.80
2019,03,19,11,16,11.80
2019,03,19,11,17,11.80
2019,03,19,11,18,11.80
2019,03,19,11,19,11.80
2019,03,19,11,20,11.80
2019,03,19,11,21,11.80
2019,03,19,11,22,11.80
2019,03,19,11,23,11.90
2019,03,19,11,24,11.90
2019,03,19,11,25,11.90
2019,03,19,11,26,11.90
2019,03,19,11,27,11.90
2019,03,19,11,28,12.00
2019,03,19,11,29,12.00
2019,03,19,11,30,12.00
2019,03,19,11,31,12.10
2019,03,19,11,32,12.10
2019,03,19,11,33,12.10
2019,03,19,11,34,12.10
2019,03,19,11,35,12.10
2019,03,19,11,36,12.20
2019,03,19,11,37,12.30
2019,03,19,11,38,12.20
2019,03,19,11,39,12.20
2019,03,19,11,40,12.20
2019,03,19,11,41,12.20
2019,03,19,11,42,12.20
2019,03,19,11,43,12.20
2019,03,19,11,44,12.30
2019,03,19,11,45,12.30
2019,03,19,11,46,12.40
2019,03,19,11,47,12.40
2019,03,19,11,48,12.40
2019,03,19,11,49,12.40
2019,03,19,11,50,12.40
2019,03,19,11,51,12.50
2019,03,19,11,52,12.60
2019,03,19,11,53,12.60
2019,03,19,11,54,12.70
2019,03,19,11,55,12.70
2019,03,19,11,56,12.70
2019,03,19,11,57,12.70
2019,03,19,11,58,12.70
2019,03,19,11,59,12.80
2019,03,19,12,00,12.80
2019,03,19,12,01,12.80
2019,03,19,12,02,12.80
2019,03,19,12,03,12.90
2019,03,19,12,04,12.90
2019,03,19,12,05,13.00
2019,03,19,12,06,13.00
2019,03,19,12,07,13.10
2019,03,19,12,08,13.10
2019,03,19,12,09,13.00
2019,03,19,12,10,13.00
2019,03,19,12,11,12.90
2019,03,19,12,12,12.90
2019,03,19,12,13,12.80
2019,03,19,12,14,12.80
2019,03,19,12,15,12.90
2019,03,19,12,16,13.00
2019,03,19,12,17,12.90
2019,03,19,12,18,12.90
2019,03,19,12,19,12.90
2019,03,19,12,20,12.80
2019,03,19,12,21,12.80
2019,03,19,12,22,12.80
2019,03,19,12,23,12.80
2019,03,19,12,24,12.80
2019,03,19,12,25,12.90
2019,03,19,12,26,13.00
2019,03,19,12,27,13.10
2019,03,19,12,28,13.20
2019,03,19,12,29,13.30
2019,03,19,12,30,13.30
2019,03,19,12,31,13.40
2019,03,19,12,32,13.50
2019,03,19,12,33,13.50
2019,03,19,12,34,13.40
2019,03,19,12,35,13.40
2019,03,19,12,36,13.40
2019,03,19,12,37,13.30
2019,03,19,12,38,13.30
2019,03,19,12,39,13.30
2019,03,19,12,40,13.30
2019,03,19,12,41,13.20
2019,03,19,12,42,13.10
2019,03,19,12,43,13.10
2019,03,19,12,44,13.20
2019,03,19,12,45,13.20
2019,03,19,12,46,13.30
2019,03,19,12,47,13.30
2019,03,19,12,48,13.30
2019,03,19,12,49,13.30
2019,03,19,12,50,13.30
2019,03,19,12,51,13.30
2019,03,19,12,52,13.40
2019,03,19,12,53,13.40
2019,03,19,12,54,13.40
2019,03,19,12,55,13.40
2019,03,19,12,56,13.40
2019,03,19,12,57,13.30
2019,03,19,12,58,13.30
2019,03,19,12,59,13.30
2019,03,19,13,00,13.30
2019,03,19,13,01,13.40
2019,03,19,13,02,13.50
2019,03,19,13,03,13.50
2019,03,19,13,04,13.50
2019,03,19,13,05,13.50
2019,03,19,13,06,13.60
2019,03,19,13,07,13.60
2019,03,19,13,08,13.50
2019,03,19,13,09,13.50
2019,03,19,13,10,13.40
2019,03,19,13,11,13.50
2019,03,19,13,12,13.60
2019,03,19,13,13,13.60
2019,03,19,13,14,13.70
2019,03,19,13,15,13.70
2019,03,19,13,16,13.80
2019,03,19,13,17,13.80
2019,03,19,13,18,13.90
2019,03,19,13,19,14.00
2019,03,19,13,20,14.00
2019,03,19,13,21,14.00
2019,03,19,13,22,14.00
2019,03,19,13,23,14.00
2019,03,19,13,24,14.10
2019,03,19,13,25,14.00
2019,03,19,13,26,14.00
2019,03,19,13,27,13.90
2019,03,19,13,28,14.00
2019,03,19,13,29,14.10
2019,03,19,13,30,14.20
2019,03,19,13,31,14.20
2019,03,19,13,32,14.20
2019,03,19,13,33,14.20
2019,03,19,13,34,14.30
2019,03,19,13,35,14.30
2019,03,19,13,36,14.30
2019,03,19,13,37,14.30
2019,03,19,13,38,14.20
2019,03,19,13,39,14.20
2019,03,19,13,40,14.10
2019,03,19,13,41,14.10
2019,03,19,13,42,14.10
2019,03,19,13,43,14.10
2019,03,19,13,44,14.00
2019,03,19,13,45,14.00
2019,03,19,13,46,14.00
2019,03,19,13,47,14.00
2019,03,19,13,48,14.00
2019,03,19,13,49,13.90
2019,03,19,13,50,13.90
2019,03,19,13,51,14.00
2019,03,19,13,52,14.10
2019,03,19,13,53,14.20
2019,03,19,13,54,14.20
2019,03,19,13,55,14.20
2019,03,19,13,56,14.20
2019,03,19,13,57,14.20
2019,03,19,13,58,14.30
2019,03,19,13,59,14.40
2019,03,19,14,00,14.50
2019,03,19,14,01,14.50
2019,03,19,14,02,14.60
2019,03,19,14,03,14.60
2019,03,19,14,04,14.60
2019,03,19,14,05,14.60
2019,03,19,14,06,14.60
2019,03,19,14,07,14.60
2019,03,19,14,08,14.60
2019,03,19,14,09,14.60
2019,03,19,14,10,14.50
2019,03,19,14,11,14.60
2019,03,19,14,12,14.60
2019,03,19,14,13,14.60
2019,03,19,14,14,14.60
2019,03,19,14,15,14.70
2019,03,19,14,16,14.80
2019,03,19,14,17,14.90
2019,03,19,14,18,15.10
2019,03,19,14,19,15.20
2019,03,19,14,20,15.30
2019,03,19,14,21,15.30
2019,03,19,14,22,15.30
2019,03,19,14,23,15.40
2019,03,19,14,24,15.50
2019,03,19,14,25,15.60
2019,03,19,14,26,15.60
2019,03,19,14,27,15.60
2019,03,19,14,28,15.70
2019,03,19,14,29,15.70
2019,03,19,14,30,15.70
2019,03,19,14,31,15.80
2019,03,19,14,32,15.80
2019,03,19,14,33,15.80
2019,03,19,14,34,15.90
2019,03,19,14,35,16.00
2019,03,19,14,36,16.10
2019,03,19,14,37,16.10
2019,03,19,14,38,16.10
2019,03,19,14,39,15.90
2019,03,19,14,40,16.00
2019,03,19,14,41,16.10
2019,03,19,14,42,16.10
2019,03,19,14,43,16.00
2019,03,19,14,44,16.10
2019,03,19,14,45,16.10
2019,03,19,14,46,16.10
2019,03,19,14,47,16.10
2019,03,19,14,48,16.20
2019,03,19,14,49,16.30
2019,03,19,14,50,16.30
2019,03,19,14,51,16.40
2019,03,19,14,52,16.40
2019,03,19,14,53,16.30
2019,03,19,14,54,16.30
2019,03,19,14,55,16.30
2019,03,19,14,56,16.30
2019,03,19,14,57,16.20
2019,03,19,14,58,16.30
2019,03,19,14,59,16.30
2019,03,19,15,00,16.30
2019,03,19,15,01,16.30
2019,03,19,15,02,16.30
2019,03,19,15,03,16.30
2019,03,19,15,04,16.30
2019,03,19,15,05,16.40
2019,03,19,15,06,16.50
2019,03,19,15,07,16.60
2019,03,19,15,08,16.70
2019,03,19,15,09,16.90
2019,03,19,15,10,16.90
2019,03,19,15,11,16.70
2019,03,19,15,12,16.70
2019,03,19,15,13,16.70
2019,03,19,15,14,16.60
2019,03,19,15,15,16.50
2019,03,19,15,16,16.40
2019,03,19,15,17,16.40
2019,03,19,15,18,16.30
2019,03,19,15,19,16.30
2019,03,19,15,20,16.40
2019,03,19,15,21,16.40
2019,03,19,15,22,16.40
2019,03,19,15,23,16.40
2019,03,19,15,24,16.40
2019,03,19,15,25,16.50
2019,03,19,15,26,16.60
2019,03,19,15,27,16.70
2019,03,19,15,28,16.70
2019,03,19,15,29,16.70
2019,03,19,15,30,16.70
2019,03,19,15,31,16.70
2019,03,19,15,32,16.60
2019,03,19,15,33,16.60
2019,03,19,15,34,16.60
2019,03,19,15,35,16.60
2019,03,19,15,36,16.70
2019,03,19,15,37,16.70
2019,03,19,15,38,16.80
2019,03,19,15,39,16.80
2019,03,19,15,40,16.80
2019,03,19,15,41,16.90
2019,03,19,15,42,16.90
2019,03,19,15,43,17.00
2019,03,19,15,44,17.00
2019,03,19,15,45,17.10
2019,03,19,15,46,17.10
2019,03,19,15,47,17.10
2019,03,19,15,48,17.20
2019,03,19,15,49,17.20
2019,03,19,15,50,17.10
2019,03,19,15,51,17.10
2019,03,19,15,52,17.00
2019,03,19,15,53,17.00
2019,03,19,15,54,17.00
2019,03,19,15,55,17.00
2019,03,19,15,56,17.00
2019,03,19,15,57,17.00
2019,03,19,15,58,17.00
2019,03,19,15,59,17.00
2019,03,19,16,00,17.10
2019,03,19,16,01,17.10
2019,03,19,16,02,17.20
2019,03,19,16,03,17.10
2019,03,19,16,04,17.10
2019,03,19,16,05,17.10
2019,03,19,16,06,17.00
2019,03,19,16,07,17.00
2019,03,19,16,08,17.00
2019,03,19,16,09,16.90
2019,03,19,16,10,16.90
2019,03,19,16,11,16.90
2019,03,19,16,12,16.90
2019,03,19,16,13,16.90
2019,03,19,16,14,16.90
2019,03,19,16,15,17.00
2019,03,19,16,16,17.00
2019,03,19,16,17,17.10
2019,03,19,16,18,17.10
2019,03,19,16,19,17.20
2019,03,19,16,20,17.30
2019,03,19,16,21,17.20
2019,03,19,16,22,17.20
2019,03,19,16,23,17.10
2019,03,19,16,24,17.00
2019,03,19,16,25,17.00
2019,03,19,16,26,17.10
2019,03,19,16,27,17.10
2019,03,19,16,28,17.10
2019,03,19,16,29,17.10
2019,03,19,16,30,17.10
2019,03,19,16,31,17.10
2019,03,19,16,32,17.10
2019,03,19,16,33,17.10
2019,03,19,16,34,17.10
2019,03,19,16,35,17.10
2019,03,19,16,36,17.10
2019,03,19,16,37,17.20
2019,03,19,16,38,17.20
2019,03,19,16,39,17.20
2019,03,19,16,40,17.20
2019,03,19,16,41,17.20
2019,03,19,16,42,17.20
2019,03,19,16,43,17.20
2019,03,19,16,44,17.20
2019,03,19,16,45,17.20
2019,03,19,16,46,17.20
2019,03,19,16,47,17.10
2019,03,19,16,48,17.10
2019,03,19,16,49,17.10
2019,03,19,16,50,17.00
2019,03,19,16,51,17.00
2019,03,19,16,52,17.00
2019,03,19,16,53,17.00
2019,03,19,16,54,17.00
2019,03,19,16,55,16.90
2019,03,19,16,56,16.80
2019,03,19,16,57,16.70
2019,03,19,16,58,16.70
2019,03,19,16,59,16.70
2019,03,19,17,00,16.70
2019,03,19,17,01,16.70
2019,03,19,17,02,16.70
2019,03,19,17,03,16.60
2019,03,19,17,04,16.60
2019,03,19,17,05,16.60
2019,03,19,17,06,16.60
2019,03,19,17,07,16.50
2019,03,19,17,08,16.50
2019,03,19,17,09,16.60
2019,03,19,17,10,16.60
2019,03,19,17,11,16.50
2019,03,19,17,12,16.40
2019,03,19,17,13,16.40
2019,03,19,17,14,16.50
2019,03,19,17,15,16.60
2019,03,19,17,16,16.50
2019,03,19,17,17,16.50
2019,03,19,17,18,16.50
2019,03,19,17,19,16.60
2019,03,19,17,20,16.60
2019,03,19,17,21,16.70
2019,03,19,17,22,16.70
2019,03,19,17,23,16.70
2019,03,19,17,24,16.70
2019,03,19,17,25,16.70
2019,03,19,17,26,16.70
2019,03,19,17,27,16.70
2019,03,19,17,28,16.70
2019,03,19,17,29,16.70
2019,03,19,17,30,16.70
2019,03,19,17,31,16.60
2019,03,19,17,32,16.60
2019,03,19,17,33,16.60
2019,03,19,17,34,16.50
2019,03,19,17,35,16.40
2019,03,19,17,36,16.40
2019,03,19,17,37,16.40
2019,03,19,17,38,16.40
2019,03,19,17,39,16.40